Preview of NWS' New Version of Forecast
This preview is not operational and should not be used for support decisions.

Regional Weather Roundup (RWR)

Issued by National Weather Service (NWS)

                            
000
ASUS43 KLSX 200407
RWRMO 

WEATHER SUMMARY FOR MISSOURI
NATIONAL WEATHER SERVICE SPRINGFIELD MO
1000 PM CST TUE FEB 19 2019

NOTE: "FAIR" INDICATES FEW OR NO CLOUDS BELOW 12,000 FEET WITH NO
       SIGNIFICANT WEATHER AND/OR OBSTRUCTIONS TO VISIBILITY.
       CURRENT SKY AND/OR WEATHER CONDITIONS ARE NOT AVAILABLE FOR
       CHILLICOTHE AND FARMINGTON.

MOZ001>031-035>038-043-044-053-054-200500-
...NORTHERN AND WESTERN MISSOURI...
  
CITY           SKY/WX    TMP DP  RH WIND       PRES   REMARKS
KANSAS CTY INT SNOW      27  25  92 E7        30.01S VSB 1/2 WCI  19  
KANSAS C DTWN  LGT SNOW  30  26  85 E8        30.01S FOG     WCI  22  
LEE'S SUMMIT   MIX PCPN  28  28 100 E15       30.00R FOG     WCI  16  
ST JOSEPH      SNOW      27  27 100 NE6       30.05F VSB 1/4 WCI  20  
CHILLICOTHE      N/A     30  24  78 E13G25    30.07F WCI  20          
KIRKSVILLE     CLOUDY    29  27  92 E20G31    30.12F WCI  16          
     
$$
MOZ066>068-077>081-088>096-101>105-200500-
...SOUTHWEST MISSOURI...
  
CITY           SKY/WX    TMP DP  RH WIND       PRES   REMARKS
SPRINGFIELD    LGT RAIN  35  31  85 SE12      29.91R WCI  27          
JOPLIN         MIX PCPN  32  31  96 N3        29.96F VSB 1            
BRANSON        RAIN      32  32 100 E6        29.91F WCI  26          
               
$$
MOZ032>034-039>042-045>050-055>058-069>072-200500-
...CENTRAL MISSOURI...  
  
CITY           SKY/WX    TMP DP  RH WIND       PRES   REMARKS
COLUMBIA       FRZ RAIN  30  26  85 E24G35    30.03F FOG     WCI  16  
JEFFERSON CITY FRZ RAIN  31  27  85 E23G35    30.04F FOG     WCI  18  
ROLLA          FRZ RAIN  30  27  88 E18G26    30.02F FOG     WCI  18  
SEDALIA        CLOUDY    29  27  92 E22G31    29.99F FOG     WCI  15  
WHITEMAN AFB   FRZ DRZL  29  28  95 E13G22    29.95F FOG     WCI  19  
OSAGE BEACH    FLURRIES  30  29  96 E16G22    29.99F WCI  19          
               
$$
MOZ051-052-059>065-200500-
...EAST CENTRAL MISSOURI...
  
CITY           SKY/WX    TMP DP  RH WIND       PRES   REMARKS
ST LOUIS INTL  LGT SNOW  30  27  88 E14       30.18F VSB 1   WCI  19  
SPIRIT OF STL  LGT SNOW  31  29  92 E12       30.18F VSB 1   WCI  22  
ST CHARLES     LGT SNOW  32  26  78 E15G24    30.20F WCI  22          
                   
$$
MOZ072>076-082>087-097>100-106>115-200500-
...SOUTH CENTRAL AND SOUTHEAST MISSOURI...
  
CITY           SKY/WX    TMP DP  RH WIND       PRES   REMARKS
CAPE GIRARDEAU RAIN      34  31  88 E16       30.10F FOG     WCI  24  
FARMINGTON     MIX PCPN  32  31  96 E16G23    30.08F WCI  21          
POPLAR BLUFF   LGT RAIN  34  33  96 NE12G25   30.06F FOG     WCI  25  
WEST PLAINS    LGT RAIN  33  32  96 E10       29.96F WCI  25          
                                       
$$